Showing default

TOMORROW-S1, 60479

Orbit data source: Space-Track

TOMORROW-S1, 60479 is a payload satellite owned by Tomorrow.io (US) in SSO that was launched on Fri, 16 Aug 2024 UTC via an FALCON 9 launch vehicle from the Air Force Western Test Range (AFWTR). Payload-class satellites include a variety of spacecraft equipped with specific instruments for various scientific and technological missions. These include communications satellites like Starlink; space stations such as the ISS; scientific satellites like the Hubble; Earth observation satellites from companies like Planet Labs, Umbra, and HawkEye 360; GPS; miniature CubeSats for education and research; and military/defense satellites.

Loading next visibility...
Identifier
60479, 2024-149M
Orbit
SSO
Country
Flag of USUS
Related business
Manufacturer
Blue Canyon
Mission
Operational Commercial Weather
Bus & Motor
CUBESAT 6U, Unknown motor
Mass
12 kg wet, 12 kg dry
Launch date (UTC)
2024-08-16 (2 years ago)
Launch vehicle
FALCON 9
Launch site
Air Force Western Test Range (AFWTR)
Object type
Payload
Rocket body
Debris
Shape & HBR
Box + 2 Pan, 1.0 m
Radar Cross Section
0.138 m², Medium (>0.1 m² and < 1m²)

Expand to show TLE details & history
Last TLE update: 11 hours ago

TLE from 11 hours ago
0 TOMORROW-S1
1 60479U 24149M   26131.96159620  .00004502  00000-0  14729-3 0  9994
2 60479  97.3750 212.5631 0003278  48.6179 311.5344 15.32206006 96544
Epoch: 2026-05-11T23:04Z
TLE epoch observation values (Epoch: 2026-05-11T23:04:41.911Z)
Latitude
-0.00006°
Longitude
-3.35433°
Altitude
470.852 km
Speed
7.631 km/s
True Right ascension
14h 10m 15s
True Declination
0° 00' 00"
Sunlit
Object was in full shadow at epoch
Visualization orbit readout
Latitude
Unknown
Longitude
Unknown
Altitude
Unknown
Speed
Unknown
Apparent Right ascension
Unknown
Apparent Declination
Unknown
Sunlit
N/A
Visualization observer readout
Local Sidereal Time
18:12:54
Azimuth
Unknown
Elevation
Unknown
Doppler factor
Unknown
Orbital elements
Apogee altitude
468.424 km
Perigee altitude
463.937 km
Semi-major axis
6,844.317 km
Eccentricity
0.00033
Inclination
97.375°
RAAN
212.5631°
Arg. of periapsis
48.6179°
True anomaly
311.50627°
Mean anomaly
311.5344°
Eccentric anomaly
311.52034°
Mean motion
3.83308 °/min
Orbital period
93.92 mins
BSTAR
0.00014729
Loading maneuver chart data...
Computing Atmospheric mass density...
Loading historical data...
Loading historical data...
Loading historical data...
Loading historical data...
Loading historical data...
Loading historical data...
Loading historical data...

Documentation

Showing up to 5 results
|